Dati Storici

Data ora Umidita' aria (%) Temperatura aria (°C) Rad globale (W/m²) Gonioanemometro (°) Tacoanemometro (m/s) Pioggia (mm)
27-10-2012 08:50 97.1 % 13.542 41.741 331.3 0.94 0
27-10-2012 08:40 97.1 % 13.421 43.295 302.975 0.256 0
27-10-2012 08:30 97.1 % 13.321 24.182 296.924 0.196 0
27-10-2012 08:20 97.2 % 13.233 18.761 66.971 -0.015 0
27-10-2012 08:10 97.2 % 13.239 20.053 35.065 0.635 0
27-10-2012 08:00 97.2 % 13.221 11.426 33.627 0.71 0
27-10-2012 07:50 97.2 % 13.2 4.567 336.802 0.909 0
27-10-2012 07:40 97.2 % 13.167 3.939 336.978 0.78 0
27-10-2012 07:30 97.2 % 13.17 3.542 320.085 0.598 0
27-10-2012 07:20 97.1 % 13.172 3.106 99.783 0.78 0
27-10-2012 07:10 97.2 % 13.173 3.234 283.024 0.084 0
27-10-2012 07:00 97.2 % 13.138 2.991 303.736 0.717 0
27-10-2012 06:50 97.1 % 13.099 3.016 232.961 0.208 0
27-10-2012 06:40 97.1 % 13.113 3.132 327.954 0.659 0
27-10-2012 06:30 97.2 % 13.191 3.234 326.547 0.749 0
27-10-2012 06:20 97.2 % 13.176 2.973 333.185 0.916 0
27-10-2012 06:10 97.3 % 13.128 2.832 168.979 0.282 0
27-10-2012 06:00 97.2 % 13.018 2.908 1.882 0.976 0
27-10-2012 05:50 97.1 % 12.967 2.883 261.233 0.341 0
27-10-2012 05:40 97.2 % 12.94 3.075 3.296 0.158 0

I dati sono presentati in modo automatico a scopo informativo. In seguito a verifica i dati possono subire modifiche o essere invalidati e non riportati negli archivi definitivi.